Regional Weather Roundup
Issued by NWS

Home | Current Version | Previous Version | Graphics & Text | Print | Product List | Glossary On
Versions: 1 2 3 4 5 6 7 8 9 10 11 12 13 14 15 16 17 18 19 20 21 22 23 24 25 26 27 28 29 30 31 32 33 34 35 36 37 38 39 40 41 42 43 44 45 46 47 48 49 50
000
ASUS43 KMPX 231301
RWRMN
WEATHER ROUNDUP FOR MINNESOTA
NATIONAL WEATHER SERVICE TWIN CITIES/CHANHASSEN MN
700 AM CST THU NOV 23 2017


NOTE: "FAIR" INDICATES FEW OR NO CLOUDS BELOW 12,000 FEET WITH NO
SIGNIFICANT WEATHER AND/OR OBSTRUCTIONS TO VISIBILITY. N/A MEANS
CURRENT SKY AND/OR WEATHER CONDITIONS ARE NOT AVAILABLE.

MNZ060>063-068>070-231400-
   Twin Cities Metro

CITY           SKY/WX    TMP DP  RH WIND       PRES   REMARKS
TWIN CITIES    CLOUDY    23  18  81 W3        29.95S
ST PAUL        CLOUDY    23  19  85 CALM      29.96S
CRYSTAL        CLOUDY    21  14  74 CALM      29.94S
BLAINE         CLOUDY    19  18  93 CALM      29.94R
LAKEVILLE      CLOUDY    19  18  93 CALM      29.94S
EDEN PRAIRIE   CLOUDY    23  18  81 CALM      29.94S
SOUTH ST PAUL  CLOUDY    22  18  85 CALM      29.95S
LAKE ELMO      FAIR      19  18  93 CALM      29.95S
$$
MNZ001>005-007-008-013>017-022>024-027-028-231400-
   Northwest Minnesota

CITY           SKY/WX    TMP DP  RH WIND       PRES   REMARKS
BEMIDJI        CLOUDY    17  15  91 CALM      29.87S
HALLOCK        CLOUDY    21  21 100 S3        29.86F
ROSEAU         CLOUDY    19  16  86 SW5       29.86S WCI  13
WARROAD        CLOUDY    18  14  86 CALM      29.86S
THIEF RVR FALL SNOW      21  19  93 SW9       29.89F VSB 1/2 WCI  11
CROOKSTON      CLOUDY    27  23  86 S5        29.90F WCI  21
FOSSTON        CLOUDY    19  18  93 SW5       29.91R WCI  13
DETROIT LAKES  PTCLDY    21  19  93 W5        29.92R WCI  15
MOORHEAD       CLOUDY    25  18  74 CALM      29.94S
PARK RAPIDS    CLOUDY    12   8  84 CALM      29.87F
MAHNOMEN       CLOUDY    20  17  88 SW3       29.90S
$$
MNZ006-009>011-018-025>026-231400-
   North Central Minnesota

CITY           SKY/WX    TMP DP  RH WIND       PRES   REMARKS
BAUDETTE       CLOUDY    17  14  88 CALM      29.85S
FLAG ISLAND    CLOUDY    19  16  86 CALM      29.84F
INTL FALLS     CLOUDY    20  16  84 W5        29.86R WCI  13
WASKISH        CLOUDY    19  18  93 SW7       29.87R WCI  10
BIG FORK       CLOUDY    16  12  86 SW3       29.86S
LONGVILLE      CLOUDY     7   3  85 CALM      29.88F
GRAND RAPIDS   CLOUDY    14  12  92 S5        29.88F WCI   6
CRANE LAKE     CLOUDY    16  14  93 CALM      29.88R
ORR            CLEAR     16  12  86 CALM      29.83F
COOK           CLOUDY    18  16  93 SW3       29.85F
WALKER         FAIR      13  11  90 SW3       29.87S
$$
MNZ012-019>021-037-231400-
   Northeast Minnesota

CITY           SKY/WX    TMP DP  RH WIND       PRES   REMARKS
DULUTH         CLOUDY    19  18  95 W9        29.88S FOG     WCI   8
ELY            CLOUDY    16  16 100 CALM      29.84F
HIBBING        CLOUDY    13  11  92 CALM      29.87F
EVELETH        CLOUDY    17  14  86 CALM      29.88F
DULUTH HARBOR  CLOUDY    23  19  86 SW7       29.93S WCI  15
TWO HARBORS    CLOUDY    21  16  79 SW3       29.86F
SILVER BAY     CLOUDY    18  18 100 CALM      29.85S
G MARAIS ARPRT CLEAR     18  12  79 W6        29.79S WCI   9
$$
MNZ029>031-032-039>041-046>048-054>057-064-231400-
   West Central Minnesota

CITY           SKY/WX    TMP DP  RH WIND       PRES   REMARKS
FERGUS FALLS   CLOUDY    16  12  86 CALM      29.97R
WHEATON        CLOUDY    21  18  86 SW3       29.96F
MORRIS         CLOUDY    18  16  93 CALM      29.94S
ALEXANDRIA     CLOUDY    19  16  88 SW3       29.92S
ELBOW LAKE     FAIR      15  13  92 SW6       29.94R WCI   6
WADENA         CLOUDY    14  12  92 CALM      29.90S
GLENWOOD       CLOUDY    21  18  86 CALM      29.93S
APPLETON       CLOUDY    21  18  86 W6        29.97R WCI  14
BENSON         CLOUDY    18  16  93 W3        29.97S
ORTONVILLE     CLOUDY    25  18  74 NW3       29.96S
MADISON        CLOUDY    25  19  80 W5        29.98S WCI  19
WILLMAR        FAIR      19  16  86 W3        29.96S
$$
MNZ033>034-036-042>043-049>051-058-059-231400-
   Central Minnesota

CITY           SKY/WX    TMP DP  RH WIND       PRES   REMARKS
ST CLOUD       CLOUDY    19  16  88 CALM      29.93F
SAUK CENTRE    FAIR      16  14  90 CALM      29.92F
PAYNESVILLE    CLOUDY    16  15  95 W3        29.94F
AITKIN         CLOUDY     9   7  92 CALM      29.89F
PINE RIVER     CLOUDY     7   3  85 CALM      29.92F
BRAINERD       CLOUDY     9   6  88 CALM      29.90F
STAPLES        CLOUDY    12  10  92 CALM      29.90F
LITTLE FALLS   CLOUDY    18  14  86 CALM      29.93F
LITCHFIELD     CLOUDY    25  19  80 W3        29.94F
BUFFALO        CLOUDY    22  17  80 CALM      29.95F
MAPLE LAKE     CLOUDY    22  19  87 CALM      29.94F
HUTCHINSON     PTCLDY    20  17  86 CALM      29.95F
$$
MNZ037-044-045-052-053-231400-
   East Central Minnesota

CITY           SKY/WX    TMP DP  RH WIND       PRES   REMARKS
PRINCETON      CLOUDY    18  16  93 CALM      29.94F
MORA           CLOUDY    14  12  92 CALM      29.95F
CAMBRIDGE      CLOUDY    19  16  86 CALM      29.94F
RUSH CITY      CLOUDY    16  14  93 CALM      29.95F
MOOSE LAKE     CLOUDY    14  12  92 CALM      29.91S
HINCKLEY       FAIR      14  14 100 CALM      29.93S
CLOQUET        CLOUDY    19  16  86 W6        29.89S WCI  11
MCGREGOR       CLOUDY    14  14 100 CALM      29.91F
$$
MNZ071>073-080-081-089-090-097-098-231400-
   Southwest Minnesota

CITY           SKY/WX    TMP DP  RH WIND       PRES   REMARKS
MONTEVIDEO     CLOUDY    23  19  86 NW6       29.97S WCI  16
GRANITE FALLS  CLOUDY    22  19  90 W6        29.98F WCI  14
CANBY          CLOUDY    27  22  80 SW5       29.98S WCI  22
MARSHALL       CLOUDY    23  19  85 W8        29.97F WCI  14
REDWOOD FALLS  CLOUDY    23  18  81 W7        29.96F WCI  15
OLIVIA         CLOUDY    21  19  93 W5        29.95F WCI  15
PIPESTONE      CLOUDY    25  21  86 N5        29.96F WCI  19
WINDOM         CLOUDY    27  12  54 NW7       29.95F WCI  19
WORTHINGTON    CLOUDY    25  21  85 NW9       29.97R WCI  15
JACKSON        CLOUDY    28  23  80 CALM      29.95F
SLAYTON        CLOUDY    25  15  66 W7        29.96S WCI  17
$$
MNZ065>067-074>077-082>085-091>093-231400-
   South Central Minnesota

CITY           SKY/WX    TMP DP  RH WIND       PRES   REMARKS
MANKATO        CLOUDY    24  18  77 NW3       29.95S
NEW ULM        CLOUDY    19  16  86 CALM      29.96R
ST JAMES       CLOUDY    27  21  80 W9        29.97S WCI  17
FAIRMONT       CLOUDY    28  23  81 NW12      29.96R WCI  18
GLENCOE        CLOUDY    24  19  80 NW5       29.95S WCI  18
FARIBAULT      CLOUDY    19  16  86 CALM      29.94S
OWATONNA       CLOUDY    19  16  86 CALM      29.94R
WASECA         CLOUDY    19  16  86 CALM      29.95S
ALBERT LEA     CLOUDY    25  18  74 NW5       29.93R WCI  19
$$
MNZ078>079-086>088-094>096-231400-
   Southeast Minnesota

CITY           SKY/WX    TMP DP  RH WIND       PRES   REMARKS
ROCHESTER      CLOUDY    23  18  81 W8        29.92S WCI  14
RED WING       CLOUDY    21  16  79 CALM      29.93F
STANTON        CLOUDY    20  18  89 S5        29.93S WCI  14
DODGE CENTER   CLOUDY    21  18  86 W5        29.93R WCI  15
WINONA         CLOUDY    27  21  80 CALM      29.96R
AUSTIN         CLOUDY    21  18  86 CALM      29.93S
PRESTON        CLOUDY    24  17  74 SW3       29.92S
$$
ABBREVIATIONS USED IN REMARKS
   TC - TEMPERATURES IN CELSIUS
  WCI - WIND CHILL INDEX
   HX - HEAT INDEX
  VSB - VISIBILITY
$$



USA.gov is the U.S. government's official web portal to all federal, state and local government web resources and services.